Regional Weather Roundup
Issued by NWS

Home | Current Version | Previous Version | Graphics & Text | Print | Product List | Glossary On
Versions: 1 2 3 4 5 6 7 8 9 10 11 12 13 14 15 16 17 18 19 20 21 22 23 24 25 26 27 28 29 30 31 32 33 34 35 36 37 38 39 40 41 42 43 44 45 46 47 48 49 50
000
ASUS43 KBIS 252302
RWRND

NORTH DAKOTA REGIONAL WEATHER ROUNDUP
NATIONAL WEATHER SERVICE BISMARCK ND
600 PM CDT SUN JUN 25 2017

NOTE: "FAIR" INDICATES FEW OR NO CLOUDS BELOW 12,000 FEET WITH NO
SIGNIFICANT WEATHER AND/OR OBSTRUCTIONS TO VISIBILITY.


NDZ001>003-009>011-017-260000-
NORTHWEST NORTH DAKOTA

CITY           SKY/WX    TMP DP  RH WIND       PRES   REMARKS
WILLISTON      MOSUNNY   75  41  29 N9        30.23F
MINOT          MOSUNNY   68  43  40 N9        30.22S
MINOT AFB      SUNNY     68  41  36 N13       30.21F
$$

NDZ018>021-031>035-040>046-260000-
SOUTHWEST NORTH DAKOTA

CITY           SKY/WX    TMP DP  RH WIND       PRES   REMARKS
BISMARCK       PTSUNNY   71  46  40 N16       30.21R
DICKINSON      MOSUNNY   71  35  26 N16G22    30.21S
GARRISON         N/A     68  40  35 NE8       30.21S
HETTINGER ARPT MOSUNNY   74  35  24 N16       30.22S
$$

NDZ004>008-012>016-024-026-027-054-260000-
NORTHEAST NORTH DAKOTA

CITY           SKY/WX    TMP DP  RH WIND       PRES   REMARKS
GRAND FORKS    MOSUNNY   67  41  38 N16       30.17S
GRND FRKS AFB  MOSUNNY   65  41  42 N15       30.18S
DEVILS LAKE    MOSUNNY   64  38  38 NW17      30.21F
$$

NDZ022-023-025-028>030-036>039-047>053-260000-
SOUTHEAST NORTH DAKOTA

CITY           SKY/WX    TMP DP  RH WIND       PRES   REMARKS
FARGO          PTSUNNY   68  41  37 N15       30.16S
JAMESTOWN      CLOUDY    60  49  66 W3        30.20S
$$





USA.gov is the U.S. government's official web portal to all federal, state and local government web resources and services.